TimeMST,TemperatureF,Dew PointF,Humidity,Sea Level PressureIn,VisibilityMPH,Wind Direction,Wind SpeedMPH,Gust SpeedMPH,PrecipitationIn,Events,Conditions,WindDirDegrees,DateUTC
12:53 AM,33.1,28.0,82,30.00,10.0,WNW,6.9,-,N/A,,Partly Cloudy,290,2013-01-26 07:53:00
1:53 AM,33.1,28.0,82,29.99,10.0,Calm,Calm,-,N/A,,Partly Cloudy,0,2013-01-26 08:53:00
2:53 AM,32.0,27.0,82,29.97,10.0,SSW,3.5,-,N/A,,Clear,210,2013-01-26 09:53:00
3:53 AM,32.0,27.0,82,29.97,10.0,SW,3.5,-,N/A,,Partly Cloudy,230,2013-01-26 10:53:00
4:53 AM,28.9,26.1,89,29.97,10.0,West,3.5,-,N/A,,Clear,260,2013-01-26 11:53:00
5:53 AM,30.0,26.1,85,29.97,10.0,West,3.5,-,N/A,,Partly Cloudy,260,2013-01-26 12:53:00
6:53 AM,30.0,26.1,85,29.97,10.0,Calm,Calm,-,N/A,,Overcast,0,2013-01-26 13:53:00
7:53 AM,28.9,26.1,89,29.96,10.0,Calm,Calm,-,N/A,,Clear,0,2013-01-26 14:53:00
8:53 AM,28.0,25.0,88,29.94,10.0,Calm,Calm,-,N/A,,Clear,0,2013-01-26 15:53:00
9:53 AM,32.0,27.0,82,29.92,10.0,Calm,Calm,-,N/A,,Clear,0,2013-01-26 16:53:00
10:53 AM,37.0,28.0,70,29.90,10.0,Calm,Calm,-,N/A,,Mostly Cloudy,0,2013-01-26 17:53:00
11:53 AM,39.0,28.9,67,29.87,10.0,Calm,Calm,-,N/A,,Clear,0,2013-01-26 18:53:00
12:53 PM,41.0,30.0,65,29.83,10.0,Calm,Calm,-,N/A,,Scattered Clouds,0,2013-01-26 19:53:00
1:53 PM,41.0,30.0,65,29.78,10.0,West,4.6,-,N/A,,Mostly Cloudy,280,2013-01-26 20:53:00
2:53 PM,43.0,30.9,62,29.76,10.0,NW,4.6,-,N/A,,Overcast,320,2013-01-26 21:53:00
3:53 PM,43.0,32.0,65,29.78,10.0,WNW,9.2,-,N/A,,Partly Cloudy,290,2013-01-26 22:53:00
4:53 PM,39.9,30.0,68,29.82,10.0,West,12.7,-,N/A,,Overcast,270,2013-01-26 23:53:00
5:33 PM,37.4,30.2,75,29.73,10.0,West,5.8,-,0.00,Rain,Light Rain,260,2013-01-27 00:33:00
5:44 PM,37.4,28.4,70,29.74,10.0,West,12.7,-,0.00,,Overcast,270,2013-01-27 00:44:00
5:53 PM,37.0,28.0,70,29.86,10.0,WNW,9.2,-,0.00,,Overcast,300,2013-01-27 00:53:00
6:53 PM,37.4,28.4,70,29.77,10.0,WNW,5.8,-,N/A,,Mostly Cloudy,290,2013-01-27 01:53:00
7:53 PM,36.0,26.1,67,29.89,10.0,WSW,9.2,-,N/A,,Overcast,240,2013-01-27 02:53:00
8:53 PM,36.0,27.0,70,29.88,10.0,West,10.4,-,N/A,,Overcast,270,2013-01-27 03:53:00
9:53 PM,36.0,26.1,67,29.88,10.0,WSW,3.5,-,N/A,,Overcast,240,2013-01-27 04:53:00
10:53 PM,36.0,25.0,64,29.88,10.0,West,8.1,-,N/A,,Overcast,260,2013-01-27 05:53:00
11:53 PM,35.1,25.0,67,29.89,10.0,SSW,3.5,-,N/A,,Overcast,210,2013-01-27 06:53:00